Location: Squirrel Cove
(50.1074°N, 124.9139°W)
Time: 03:28:08
(UTC-07:00)

BlueWalker 3 - Visible Passes

Search period start: 20 April 2024 00:00
Search period end: 30 April 2024 00:00
Orbit: 485 x 495 km, 53.2° (Epoch: 19 April)

Date Brightness Start Highest point End Pass type
(mag) Time Alt. Az. Time Alt. Az. Time Alt. Az.
20 Apr 3.7 00:17:02 10° WNW 00:19:02 28° WNW 00:19:02 28° WNW visible
20 Apr 2.0 22:13:47 10° WSW 22:17:36 74° NNW 22:21:12 11° ENE visible
20 Apr 2.8 23:52:22 10° WNW 23:55:39 48° NNW 23:55:39 48° NNW visible
21 Apr 2.0 21:49:07 10° WSW 21:52:56 76° NNW 21:56:47 10° ENE visible
21 Apr 2.6 23:27:42 10° WNW 23:31:27 51° N 23:32:03 46° NE visible
22 Apr 4.6 01:06:05 10° WNW 01:06:28 13° WNW 01:06:28 13° WNW visible
22 Apr 2.0 21:24:25 10° WSW 21:28:15 77° NNW 21:32:05 10° ENE visible
22 Apr 2.6 23:03:01 10° WNW 23:06:46 51° N 23:08:18 31° ENE visible
23 Apr 4.1 00:41:24 10° WNW 00:42:43 20° WNW 00:42:43 20° WNW visible
23 Apr 2.1 20:59:43 10° WSW 21:03:32 79° NNW 21:07:23 10° ENE visible
23 Apr 2.6 22:38:18 10° WNW 22:42:03 51° N 22:44:28 20° ENE visible
24 Apr 3.4 00:16:41 10° WNW 00:18:52 32° WNW 00:18:52 32° WNW visible
24 Apr 2.7 22:13:34 10° WNW 22:17:18 51° N 22:20:33 13° ENE visible
24 Apr 2.5 23:51:58 10° WNW 23:54:57 53° WNW 23:54:57 53° WNW visible
25 Apr 2.7 21:48:48 10° WNW 21:52:32 51° N 21:56:18 10° ENE visible
25 Apr 1.8 23:27:12 10° WNW 23:31:00 82° N 23:31:00 82° N visible
26 Apr 2.7 21:24:01 10° WNW 21:27:46 51° N 21:31:31 10° ENE visible
26 Apr 1.9 23:02:26 10° WNW 23:06:16 81° NNE 23:07:00 56° E visible
27 Apr 4.5 00:40:55 10° W 00:41:25 13° W 00:41:25 13° W visible
27 Apr 1.9 22:37:37 10° WNW 22:41:28 79° NNE 22:43:00 34° ESE visible
28 Apr 4.1 00:16:06 10° W 00:17:24 18° W 00:17:24 18° W visible
28 Apr 2.0 22:12:48 10° WNW 22:16:39 77° NNE 22:18:59 22° ESE visible
28 Apr 3.5 23:51:15 10° W 23:53:23 25° WSW 23:53:23 25° WSW visible
29 Apr 2.0 21:47:58 10° WNW 21:51:47 75° NNE 21:54:57 15° ESE visible
29 Apr 3.0 23:26:23 10° WNW 23:29:21 31° SW 23:29:21 31° SW visible
